Regional Weather Roundup
Issued by NWS

Home | Current Version | Previous Version | Graphics & Text | Print | Product List | Glossary On
Versions: 1 2 3 4 5 6 7 8 9 10 11 12 13 14 15 16 17 18 19 20 21 22 23 24 25 26 27 28 29 30 31 32 33 34 35 36 37 38 39 40 41 42 43 44 45 46 47 48 49 50
544
ASUS45 KBOU 281507
RWRCO

WEATHER ROUNDUP FOR COLORADO
NATIONAL WEATHER SERVICE DENVER/BOULDER CO
900 AM MDT WED JUN 28 2017

NOTE: "FAIR" INDICATES FEW OR NO CLOUDS BELOW 12000 FEET WITH NO
SIGNIFICANT WEATHER AND/OR OBSTRUCTIONS TO VISIBILITY.

COZ001>005-013-030-031-281600-
...NORTHWEST COLORADO...

CITY           SKY/WX    TMP DP  RH WIND       PRES   REMARKS
CRAIG          FAIR      62  40  44 CALM      30.03F
HAYDEN         FAIR      61  36  39 E12       30.05S
MEEKER         FAIR      65  37  35 CALM      30.04S
RABBIT EARS PA PTSUNNY   54  32  43 W6        30.30S
STEAMBOAT SPGS FAIR      54  42  65 CALM      30.08S
WALDEN         FAIR      57  37  47 CALM      30.15F
$$

COZ006>008-011-281600-
...WEST CENTRAL VALLEYS...

CITY           SKY/WX    TMP DP  RH WIND       PRES   REMARKS
GRAND JUNCTION FAIR      77  30  17 SE10      29.91R
MONTROSE       FAIR      73  31  21 CALM      29.99S
EAGLE          SUNNY     61  34  36 CALM      30.10S
RIFLE          FAIR      69  36  29 NE3       29.99S
DELTA          FAIR      72  31  22 CALM      29.97F
NUCLA          FAIR      75  19  12 E5        30.05S
$$

COZ017>023-064>068-281600-
...SOUTHWEST COLORADO...

CITY           SKY/WX    TMP DP  RH WIND       PRES   REMARKS
DURANGO        FAIR      65  21  18 E6        30.13R
CORTEZ         FAIR      72  33  24 NE3       30.06R
PAGOSA SPRINGS FAIR      65  13  13 CALM      30.22R
TELLURIDE      FAIR      65  22  19 CALM      30.27S
WOLF CREEK PAS FAIR      46  12  25 S12       30.51R
$$

COZ009-010-012-014-032>034-037-058>063-281600-
...CENTRAL COLORADO...

CITY           SKY/WX    TMP DP  RH WIND       PRES   REMARKS
ASPEN          FAIR      60  35  39 N7        30.10F
BUENA VISTA    FAIR      62  25  24 CALM      30.18F
COPPER MTN     CLOUDY    54  21  28 S13       30.42S
BERTHOUD PASS  PTSUNNY   46  32  57 W17G35    30.43S
COTTONWOOD PAS FAIR      61  27  27 E5        30.29S
GUNNISON       FAIR      54  30  40 CALM      30.18F
KREMMLING      FAIR      61  36  39 CALM      30.14S
LEADVILLE      FAIR      52  26  36 S3        30.27S
MONARCH PASS   FAIR      52  12  20 W14       30.54S
SALIDA         FAIR      64  23  21 CALM      30.23S
SUNLIGHT       FAIR      54  30  40 SW6       30.35S
WILKERSON PASS FAIR      52  27  37 SW3       30.41R
$$

COZ069>075-281600-
...SAN LUIS VALLEY/SANGRE DE CRISTO MOUNTAINS...

CITY           SKY/WX    TMP DP  RH WIND       PRES   REMARKS
ALAMOSA        FAIR      63  37  38 S7        30.15S
DEL NORTE      FAIR      61  31  31 E7        30.19R
LA VETA PASS   FAIR      57  34  41 MISG      30.44S
SAGUACHE       FAIR      63  27  25 SE5       30.18R
$$

COZ035-036-038>040-281600-
...NORTHERN COLORADO FRONT RANGE...

CITY           SKY/WX    TMP DP  RH WIND       PRES   REMARKS
DENVER INTL AP PTSUNNY   72  39  30 SE9       29.99S
DMNS CITY PARK   N/A     69  44  40 SW5G13    29.99R
AURORA         PTSUNNY   70  41  34 SE10      30.00F
FRONT RANGE AP FAIR      73  39  29 SE6       30.01S
ERIE MUNI ARPT FAIR      73  38  28 S9        29.96F
BOULDER MUN AP FAIR      72  41  33 SE5       29.96F
CENTENNIAL     FAIR      69  38  32 SE9       30.01F
BROOMFIELD     FAIR      68  41  37 SE7       30.00S
FORT COLLINS   FAIR      72  45  37 S13       29.96F
LONGMONT       FAIR      74  43  33 S5        29.97F
$$

COZ041-046-047-076>085-087-088-281600-
...PIKES PEAK/PALMER DIVIDE AND SOUTHERN FOOTHILLS...

CITY           SKY/WX    TMP DP  RH WIND       PRES   REMARKS
COLO. SPRINGS  FAIR      71  37  28 CALM      30.06S
A. F. ACADEMY  FAIR      67  38  34 CALM      30.07S
SCHRIEVER AFB  FAIR      70  37  30 CALM      30.07R
CHEYENNE MTN   FAIR      67  36  31 SE13      30.05S
ELLICOTT       FAIR     N/A N/A N/A CALM      30.04S
FALCON           N/A     70  33  25 NE3       30.11S
FORT CARSON    FAIR      72  37  27 SE3       30.04S
LIMON          FAIR      73  44  35 N9        29.99S
MONUMENT HILL  FAIR      64  37  36 SE5       30.11F
CANON CITY     SUNNY     75  41  29 MISG      30.02F
WALSENBURG     FAIR      73  37  27 CALM      30.07F
TRINIDAD       FAIR      72  43  35 W5        30.05S
$$

COZ042>045-048>051-090-091-281600-
...NORTHEAST COLORADO...

CITY           SKY/WX    TMP DP  RH WIND       PRES   REMARKS
GREELEY ARPT   FAIR      74  48  39 S6        29.96F
AKRON          FAIR      71  45  39 W8        29.95S
BURLINGTON     FAIR      75  50  41 N17       29.89R
WRAY           FAIR      75  46  35 NW9       29.89R
YUMA           FAIR      70  37  30 NW6       29.91S
STERLING       FAIR      72  48  43 NW3       29.90R
HOLYOKE        NOT AVBL
FORT MORGAN    FAIR      73  39  29 W7        29.95S
$$

COZ086-089-092>099-281600-
...SOUTHEAST COLORADO...

CITY           SKY/WX    TMP DP  RH WIND       PRES   REMARKS
PUEBLO         FAIR      78  41  26 NW5       29.97S
LA JUNTA       FAIR      76  46  34 W8        29.93S
LAMAR          FAIR      78  49  35 NW9       29.86S
SPRINGFIELD      N/A     77  50  38 NW22G28   29.89R
$$




USA.gov is the U.S. government's official web portal to all federal, state and local government web resources and services.